This is the latest recevied weather packets stored in our database for station/object W5ZYX. If no packets are shown the sender has not sent any weather packets the latest 10 day(s).
| Time | Temp. | Humidity | Pressure | Rain* | Wind** | Luminosity | Snow |
|---|---|---|---|---|---|---|---|
| 1777931437 | 26.67° C | 63% | 1010.9 hPa | 0 mm | - | - | - |
| 1777931147 | 26.67° C | 63% | 1011 hPa | 0 mm | - | - | - |
| 1777930836 | 26.67° C | 62% | 1011.3 hPa | 0 mm | - | - | - |
| 1777930536 | 26.67° C | 62% | 1011.4 hPa | 0 mm | - | - | - |
| 1777930264 | 26.67° C | 63% | 1011.4 hPa | 0 mm | - | - | - |
| 1777929937 | 26.67° C | 63% | 1011.4 hPa | 0 mm | - | - | - |
| 1777929636 | 26.67° C | 60% | 1011.6 hPa | 0 mm | - | - | - |
| 1777929349 | 26.67° C | 60% | 1011.7 hPa | 0 mm | - | - | - |
| 1777929036 | 26.67° C | 61% | 1011.8 hPa | 0 mm | - | - | - |
| 1777928738 | 26.67° C | 61% | 1011.9 hPa | 0 mm | - | - | - |
| 1777928446 | 26.67° C | 63% | 1011.8 hPa | 0 mm | - | - | - |
| 1777928139 | 26.11° C | 63% | 1012.1 hPa | 0 mm | - | - | - |
| 1777927837 | 26.11° C | 61% | 1012.2 hPa | 0 mm | - | - | - |
| 1777927562 | 26.11° C | 61% | 1012.3 hPa | 0 mm | - | - | - |
| 1777927238 | 26.11° C | 63% | 1012.4 hPa | 0 mm | - | - | - |
| 1777926937 | 26.11° C | 62% | 1012.5 hPa | 0 mm | - | - | - |
| 1777926656 | 26.11° C | 60% | 1012.4 hPa | 0 mm | - | - | - |
| 1777926337 | 26.67° C | 61% | 1012.5 hPa | 0 mm | - | - | - |
| 1777926037 | 26.11° C | 61% | 1012.6 hPa | 0 mm | - | - | - |
| 1777925752 | 26.67° C | 61% | 1012.7 hPa | 0 mm | - | - | - |
| 1777925436 | 26.67° C | 61% | 1012.7 hPa | 0 mm | - | - | - |
| 1777925136 | 26.67° C | 62% | 1012.8 hPa | 0 mm | - | - | - |
| 1777924849 | 26.67° C | 61% | 1013 hPa | 0 mm | - | - | - |
| 1777924538 | 26.11° C | 61% | 1013.2 hPa | 0 mm | - | - | - |
| 1777924237 | 26.11° C | 62% | 1013.2 hPa | 0 mm | - | - | - |
* Rain latest hour (hover to see other rain measurements)
** Current wind speed in m/s (hover to see current wind gust speed)